{"data":{"norad_id":42934,"epoch":"2026-05-25T03:44:42.071136Z","epoch_age_seconds":71770,"freshness":"FRESH","line1":"1 42934U 17053A   26145.15604249 -.00000285  00000+0  00000+0 0  9991","line2":"2 42934   0.0324 320.0717 0003209  56.6825 221.1757  1.00270872 31814","mean_motion":1.00270872,"eccentricity":0.0003209,"inclination_deg":0.0324,"raan_deg":320.0717,"arg_perigee_deg":56.6825,"mean_anomaly_deg":221.1757,"bstar":0,"rev_number":3181,"period_min":1436.1099801745,"perigee_km":35773.320165555,"apogee_km":35800.381654796,"semimajor_km":42164.987910176,"source":"CELESTRAK","updated_at":"2026-05-25T13:38:14.047678Z"}}